YUNHAI 1-02

导读

YUNHAI 1-02(云海一号02星)是中国研制的环境探测卫星,由中国航天科技集团上海航天技术研究院研发。该卫星于北京时间2019年9月25日8时54分,在酒泉卫星发射中心通过长征二号丁运载火箭发射升空,顺利进入预定轨道。它主要承担大气海洋环境要素探测、空间环境探测、防灾减灾和科学试验任务,可为相关领域研究提供数据支撑。

基本信息
目录编号:
44547
目录名称:
YUNHAI 1-02
国际标识:
2019-063A
轨道中心:
EARTH
卫星名称:
YUNHAI 1-02
卫星全名:
--
卫星状态:
在轨 (已飞行2546 天)
发射日期:
2019-09-25 UTC
国别 :
中国 (CN)
星等 :
--
该卫星已列入 空间交会检测服务 Space Conjunction Data Service (SCDS) ,当前飞行风险评估等级: 无高风险
轨道信息
数据来源 国际轨道数据
星历时间: 2026-09-14T12:16:33+0800
4小时前
查看轨道信息
半长轴: 7161.197km
偏心率: 0.000492
轨道倾角: 98.415°
近地点辐角 254.235°
升交点赤经 265.047°
平近点角 105.829°
近地点: 779.536km
远地点: 786.584km
周期: 100.517分钟
每日圈数: 14.325982
详细信息
使用方式:
暂无
2D轨道图
3D轨道图
轨道高度分析图
轨道倾角分析图
轨道综合分析图
查看轨道综合分析图
与全量物体交会距离演化趋势 订阅飞行安全评估服务
与全量物体交会风险概率演化趋势 订阅飞行安全评估服务